Flag for Canada Weather past 2 weeks in Kawartha Lakes, Ontario, Canada

Now
27 °F

Chilly.


Feels Like: 22 °F
Forecast: N/A
Wind: 5 mph from Southwest

Location: Lagoon City

Current Time: Dec 20, 2014 at 4:07:21 PM

Latest Report: Dec 20, 2014 at 3:00 PM


Visibility: N/A

Pressure: 30.25 "Hg

Humidity: 72%

Dew point: 19 °F

Location of Kawartha LakesLocation

Historic Weather in Kawartha Lakes — Graph

°F

Kawartha Lakes temperature yesterday

Maximum temperature yesterday: 22 °F (at 12:00 AM)
Minimum temperature yesterday: 17 °F (at 7:00 AM)
Average temperature yesterday: 20 °F

Past Weeks' High & Low Weather Summary

 TemperatureHumidityPressure
High37 °F (Dec 6, 2:00 PM)100% (Dec 11, 8:00 PM)30.79 "Hg (Dec 11, 8:00 PM)
Low13 °F (Dec 20, 8:00 AM)47% (Dec 7, 4:00 PM)29.72 "Hg (Dec 17, 1:00 AM)
Average28 °F86%30.10 "Hg
* Reported Dec 5 2:00 PM — Dec 20 2:00 PM, Kawartha Lakes, Weather by CustomWeather, © 2014

Note: Actual official high and low records may vary slightly from our data, if they occured in-between our weather recording intervals... More about our weather records

Advertising

Kawartha Lakes weather history for previous 24 hours

 ConditionsComfort  
Time TempWeatherWind HumidityBarometerVisibility
2:00 PM
Dec 20
26 °FChilly.3 mph76%30.25 "HgN/A
1:00 PM26 °FChilly.1 mph71%30.26 "HgN/A
12:00 PM24 °FCold.2 mph76%30.28 "HgN/A
11:00 AM23 °FCold.2 mph77%30.30 "HgN/A
10:00 AM18 °FCold.3 mph87%30.31 "HgN/A
9:00 AM15 °FCold.7 mph86%30.31 "HgN/A
8:00 AM13 °FCold.3 mph90%30.32 "HgN/A
7:00 AM13 °FCold.2 mph89%30.31 "HgN/A
6:00 AM15 °FCold.1 mph86%30.29 "HgN/A
5:00 AM15 °FCold.2 mph90%30.27 "HgN/A
4:00 AM14 °FCold.5 mph93%30.25 "HgN/A
3:00 AM15 °FCold.2 mph94%30.26 "HgN/A
2:00 AM15 °FCold.3 mph94%30.27 "HgN/A
1:00 AM18 °FCold.2 mph87%30.26 "HgN/A
12:00 AM17 °FCold.2 mph93%30.28 "HgN/A
11:00 PM
Dec 19
20 °FCold.6 mph91%30.29 "HgN/A
10:00 PM20 °FCold.5 mph87%30.27 "HgN/A
9:00 PM20 °FCold.5 mph85%30.26 "HgN/A
8:00 PM20 °FCold.3 mph81%30.26 "HgN/A
7:00 PM20 °FCold.7 mph80%30.25 "HgN/A
6:00 PM21 °FCold.7 mph79%30.24 "HgN/A
5:00 PM22 °FCold.8 mph78%30.22 "HgN/A
4:00 PM22 °FCold.9 mph79%30.21 "HgN/A
Weather by CustomWeather, © 2014

See weather overviewHow to use our weather pages